Location: Berlin
(38.3226°N, 75.2177°W)
Time: 11:29:58
(UTC+00:00)

Cosmos 2278 - Pass Details

Date: 26 October 2020
Orbit: 841 x 851 km, 71.1° (Epoch: 29 November)

Event Time Altitude Azimuth Distance (km) Brightness Sun altitude
Rises 10:40:05 0° 334° (NNW) 3,405 6.5 -8.7°
Reaches altitude 10° 10:42:33 10° 332° (NNW) 2,466 5.8 -8.3°
Maximum altitude 10:48:09 67° 251° (WSW) 911 3.7 -7.2°
Drops below altitude 10° 10:53:43 10° 170° (S) 2,450 6.4 -6.1°
Sets 10:56:10 0° 167° (SSE) 3,381 7.2 -5.6°
